Mount Washington, New Hampshire, United States (03589)
Lat: 44.69N, Lon: 71.39W
Wx Zone: NHZ002
Local Info
Past Weather Observations for Today

NOTE: This archive is for the closest National Weather Service station to Mount Washington. Information may differ from the station used for current weather conditions.

Click here for Long-term Archive

Time Weather Temperature Dewpoint Humidity Pressure Winds Precip Visibility
15:52
Mostly Cloudy
82°F / 28°C 64°F / 18°C 55% 29.83 in
(1010 mb)
Calm - 10SM
14:52
Mostly Cloudy
84°F / 29°C 55°F / 13°C 37% 29.83 in
(1010 mb)
NNW 3.5 mph
(NNW 6 kph)
- 10SM
13:52
Partly Cloudy
84°F / 29°C 57°F / 14°C 40% 29.86 in
(1011 mb)
Variable 4.6 mph
(Variable 7 kph)
- 10SM
12:52
Partly Cloudy
86°F / 30°C 57°F / 14°C 38% 29.89 in
(1012 mb)
Variable 3.5 mph
(Variable 6 kph)
- 10SM
11:52
Clear
84°F / 29°C 59°F / 15°C 43% 29.89 in
(1012 mb)
S 4.6 mph
(S 7 kph)
- 10SM
10:52
Clear
79°F / 26°C 57°F / 14°C 48% 29.95 in
(1014 mb)
SSW 3.5 mph
(SSW 6 kph)
- 10SM
09:52
Clear
73°F / 23°C 55°F / 13°C 53% 29.95 in
(1014 mb)
Variable 3.5 mph
(Variable 6 kph)
- 10SM
08:52
Clear
70°F / 21°C 57°F / 14°C 64% 29.98 in
(1015 mb)
Calm - 10SM
08:07
Partly Cloudy
64°F / 18°C 57°F / 14°C 78% 29.98 in
(1015 mb)
Calm - 10SM
07:52
Mostly Cloudy
63°F / 17°C 57°F / 14°C 83% 29.98 in
(1015 mb)
Calm - 10SM
07:22
Overcast
Fog And Mist
57°F / 14°C 55°F / 13°C 94% 29.98 in
(1015 mb)
Calm - 3SM
07:18
Overcast
Fog And Mist
57°F / 14°C 55°F / 13°C 94% 29.98 in
(1015 mb)
Calm - 1 1/2SM
07:14
Overcast
Fog And Mist
57°F / 14°C 55°F / 13°C 94% 29.98 in
(1015 mb)
Calm - 3/4SM
07:00
Overcast
Fog And Mist
57°F / 14°C 54°F / 12°C 88% 30.01 in
(1016 mb)
Calm - 3/4SM
06:52
Overcast
Fog And Mist
55°F / 13°C 54°F / 12°C 94% 30.01 in
(1016 mb)
Calm - 1SM
06:38
Overcast
Fog And Mist
55°F / 13°C 54°F / 12°C 94% 30.01 in
(1016 mb)
Calm - 1 1/2SM
06:29
Obscured
Fog
55°F / 13°C 54°F / 12°C 94% 30.01 in
(1016 mb)
Calm - 1/2SM
05:52
Obscured
Fog
55°F / 13°C 54°F / 12°C 94% 30.01 in
(1016 mb)
Calm - 1/4SM
05:35
Obscured
Fog
54°F / 12°C 52°F / 11°C 94% 30.01 in
(1016 mb)
Calm - 1/4SM
05:32
Overcast
Fog And Mist
54°F / 12°C 52°F / 11°C 94% 30.01 in
(1016 mb)
Calm - 1SM
04:52
Obscured
Fog
54°F / 12°C 52°F / 11°C 94% 30.01 in
(1016 mb)
NNW 3.5 mph
(NNW 6 kph)
- M1/4SM
04:28
Obscured
Fog
54°F / 12°C 52°F / 11°C 94% 29.98 in
(1015 mb)
Calm - 1/4SM
03:52
Obscured
Fog
54°F / 12°C 52°F / 11°C 94% 29.98 in
(1015 mb)
Calm - 1/4SM
03:14
Obscured
Fog
54°F / 12°C 52°F / 11°C 94% 30.01 in
(1016 mb)
SE 3.5 mph
(SE 6 kph)
- 1/4SM
03:02
Obscured
Fog
55°F / 13°C 52°F / 11°C 88% 30.01 in
(1016 mb)
Calm - 1/4SM
02:52
Overcast
Fog
54°F / 12°C 52°F / 11°C 94% 30.01 in
(1016 mb)
Calm - 1/2SM
02:45
Obscured
Fog
54°F / 12°C 52°F / 11°C 94% 30.01 in
(1016 mb)
Calm - 1/2SM
02:39
Overcast
Fog And Mist
54°F / 12°C 52°F / 11°C 94% 30.01 in
(1016 mb)
Calm - 1 1/4SM
02:30
Overcast
Fog And Mist
54°F / 12°C 52°F / 11°C 94% 30.01 in
(1016 mb)
Calm - 2 1/2SM
02:16
Obscured
Fog And Mist
54°F / 12°C 52°F / 11°C 94% 30.01 in
(1016 mb)
Calm - 3/4SM
02:14
Overcast
Fog And Mist
54°F / 12°C 52°F / 11°C 94% 30.01 in
(1016 mb)
Calm - 1 1/2SM
01:52
Overcast
Fog And Mist
54°F / 12°C 52°F / 11°C 94% 30.01 in
(1016 mb)
Calm - 6SM
01:43
Overcast
55°F / 13°C 52°F / 11°C 88% 30.01 in
(1016 mb)
Calm - 10SM
01:34
Mostly Cloudy
54°F / 12°C 50°F / 10°C 88% 30.01 in
(1016 mb)
Calm - 10SM
00:52
Partly Cloudy
55°F / 13°C 54°F / 12°C 94% 30.01 in
(1016 mb)
Calm - 10SM
00:42
Mostly Cloudy
55°F / 13°C 52°F / 11°C 88% 30.01 in
(1016 mb)
E 3.5 mph
(E 6 kph)
- 10SM
00:25
Partly Cloudy
55°F / 13°C 52°F / 11°C 88% 30.01 in
(1016 mb)
Calm - 10SM
Time Weather Temperature Dewpoint Humidity Pressure Winds Precip Visibility


Weather for websites

WeatherForYou.com, LLC is not responsible for any damages or problems caused by this service. Current weather conditions are obtained from the closest station including government and personal stations which may have varying degrees of accuracy. Weather forecasts are derived from the NOAA NDFD. Like all things, this site belongs to Jesus Christ... He just trusts us to maintain it. If you have any questions or comments email webmaster@weatherforyou.com

Copyright © 2016, WeatherForYou.com LLC. All rights reserved.